GW1585 Weather Reports


time (UTC)temp
C
wind
direction
speed
KPH
gust
KPH
rain 1hr
cm
rain 24hr
cm
rain mn
cm
humidity
%
barometer
mb
20260507221555 9 0 0.0 0.0 0.00 0.00 0.00 82 1017.8
20260507220055 10 0 0.0 0.0 0.00 0.00 0.00 82 1017.8
20260507214557 10 0 0.0 1.6 0.00 0.00 0.00 82 1017.9
20260507213059 10 0 0.0 4.8 0.00 0.00 0.00 82 1017.9
20260507211555 10 0 0.0 1.6 0.00 0.00 0.00 81 1017.8
20260507210057 10 311 0.0 4.8 0.00 0.00 0.00 81 1017.8
20260507204559 10 356 0.0 3.2 0.00 0.00 0.00 81 1017.9
20260507203056 10 0 0.0 0.0 0.00 0.00 0.00 81 1017.9
20260507201555 10 0 0.0 1.6 0.00 0.00 0.00 81 1017.8
20260507200055 10 79 0.0 1.6 0.00 0.00 0.00 81 1017.5
20260507194556 10 0 0.0 1.6 0.00 0.00 0.00 81 1017.4
20260507193055 10 0 0.0 0.0 0.00 0.00 0.00 80 1017.3
20260507191603 10 0 0.0 1.6 0.00 0.00 0.00 79 1017.3
20260507190059 10 0 0.0 1.6 0.00 0.00 0.00 78 1017.3
20260507184556 10 65 0.0 4.8 0.00 0.00 0.00 77 1017.4
20260507183105 11 80 0.0 3.2 0.00 0.00 0.00 76 1017.3
20260507181555 11 0 0.0 8.0 0.00 0.00 0.00 75 1017.2
20260507180059 11 2 0.0 4.8 0.00 0.00 0.00 74 1017.2
20260507174556 12 44 0.0 4.8 0.00 0.00 0.00 73 1017.2
20260507173103 12 0 1.6 8.0 0.00 0.00 0.00 74 1017.2
20260507171557 12 39 0.0 4.8 0.00 0.00 0.00 74 1017.2
20260507170059 12 78 0.0 4.8 0.00 0.00 0.00 74 1017.3
20260507164557 12 0 0.0 4.8 0.00 0.00 0.00 73 1017.2
20260507163100 12 84 0.0 4.8 0.00 0.00 0.00 73 1017.2
20260507161559 12 203 0.0 4.8 0.00 0.00 0.00 73 1017.2
20260507160057 12 0 1.6 6.4 0.00 0.00 0.00 73 1017.2
20260507154559 12 89 1.6 4.8 0.00 0.00 0.00 73 1017.3
20260507153105 12 0 1.6 9.7 0.00 0.00 0.00 73 1017.3
20260507151558 12 142 1.6 6.4 0.00 0.00 0.00 72 1017.3
20260507150109 13 0 0.0 9.7 0.00 0.00 0.00 71 1017.3
20260507144556 13 117 1.6 6.4 0.00 0.00 0.00 71 1017.3
20260507143107 13 144 1.6 8.0 0.00 0.00 0.00 71 1017.3
20260507141559 13 180 1.6 8.0 0.00 0.00 0.00 71 1017.4
20260507134601 13 0 1.6 4.8 0.00 0.00 0.00 69 1017.5
20260507133100 13 159 1.6 6.4 0.00 0.00 0.00 68 1017.5
20260507131601 14 125 1.6 6.4 0.00 0.00 0.00 68 1017.7
20260507130107 14 176 1.6 4.8 0.00 0.00 0.00 67 1017.8
20260507124600 15 171 0.0 4.8 0.00 0.00 0.00 65 1017.8
20260507123058 15 0 0.0 4.8 0.00 0.00 0.00 65 1017.8
20260507121601 15 143 0.0 3.2 0.00 0.00 0.00 68 1017.7
20260507120058 15 149 0.0 3.2 0.00 0.00 0.00 66 1017.8
20260507114559 15 0 0.0 3.2 0.00 0.00 0.00 67 1017.8
20260507113055 15 0 0.0 3.2 0.00 0.00 0.00 66 1017.7
20260507111555 15 148 0.0 4.8 0.00 0.00 0.00 67 1017.9
20260507104602 13 0 0.0 4.8 0.00 0.00 0.00 70 1018.0
20260507103128 13 0 1.6 6.4 0.00 0.00 0.00 69 1017.9
20260507101556 13 247 1.6 8.0 0.00 0.00 0.00 69 1017.9
20260507100110 13 0 1.6 6.4 0.00 0.00 0.00 68 1017.8
20260507094601 13 290 1.6 6.4 0.00 0.00 0.00 68 1017.9
20260507093102 13 6 1.6 6.4 0.00 0.00 0.00 67 1017.8
20260507091600 13 326 1.6 8.0 0.00 0.00 0.00 68 1017.8
20260507084606 13 5 1.6 6.4 0.00 0.00 0.00 68 1017.5
20260507083100 13 274 0.0 4.8 0.00 0.00 0.00 69 1017.5
20260507081559 13 326 0.0 4.8 0.00 0.00 0.00 69 1017.5
20260507080104 12 359 0.0 4.8 0.00 0.00 0.00 69 1017.4
20260507074608 12 14 0.0 6.4 0.00 0.00 0.00 71 1017.2
20260507073102 12 0 0.0 3.2 0.00 0.00 0.00 70 1017.2
20260507071559 12 313 0.0 4.8 0.00 0.00 0.00 71 1016.9
20260507070107 12 266 0.0 4.8 0.00 0.00 0.00 71 1016.9
20260507064556 12 0 0.0 4.8 0.00 0.00 0.00 71 1016.8
20260507063057 11 341 0.0 4.8 0.00 0.00 0.00 74 1016.7
20260507061556 10 136 0.0 4.8 0.00 0.00 0.00 77 1016.5
20260507054612 9 0 0.0 3.2 0.00 0.00 0.00 79 1016.3
20260507053105 9 0 0.0 1.6 0.00 0.00 0.00 80 1016.3
20260507051558 9 0 0.0 1.6 0.00 0.00 0.00 80 1016.3
20260507050056 8 0 0.0 4.8 0.00 0.00 0.00 81 1016.1
20260507044557 8 0 0.0 4.8 0.00 0.00 0.00 82 1016.0
20260507043054 8 259 0.0 1.6 0.00 0.00 0.00 82 1015.8
20260507041603 8 0 0.0 3.2 0.00 0.00 0.00 82 1015.8
20260507040055 8 0 0.0 3.2 0.00 0.00 0.00 81 1015.7
20260507034600 8 0 0.0 1.6 0.00 0.00 0.00 81 1015.7
20260507033056 8 345 0.0 4.8 0.00 0.00 0.00 81 1015.7
20260507031555 8 0 0.0 0.0 0.00 0.00 0.00 81 1015.7
20260507030101 8 0 0.0 3.2 0.00 0.00 0.00 81 1015.6
20260507024556 8 0 0.0 1.6 0.00 0.00 0.00 81 1015.6
20260507023055 8 0 0.0 0.0 0.00 0.00 0.00 81 1015.5
20260507021627 8 0 0.0 3.2 0.00 0.00 0.00 80 1015.5
20260507020110 8 0 0.0 3.2 0.00 0.00 0.00 81 1015.4
20260507014621 8 158 0.0 1.6 0.00 0.00 0.00 81 1015.4
20260507013101 8 0 0.0 3.2 0.00 0.00 0.00 81 1015.5
20260507011600 8 0 0.0 3.2 0.00 0.00 0.00 80 1015.5
20260507010058 8 0 0.0 4.8 0.00 0.00 0.00 81 1015.5
20260507004552 8 286 0.0 3.2 0.00 0.00 0.00 80 1015.3
20260507003055 8 0 0.0 1.6 0.00 0.00 0.00 80 1015.4
20260507001606 8 191 0.0 1.6 0.00 0.00 0.00 79 1015.3
20260507000127 9 0 0.0 3.2 0.00 0.00 0.00 79 1015.5
20260506234625 9 0 0.0 3.2 0.00 0.00 0.00 79 1015.5
20260506233059 9 257 0.0 3.2 0.00 0.00 0.00 79 1015.5
20260506231556 9 0 0.0 3.2 0.00 0.00 0.00 78 1015.6
20260506230103 9 39 0.0 4.8 0.00 0.00 0.00 78 1015.6
20260506224556 9 0 0.0 3.2 0.00 0.00 0.00 79 1015.4
20260506223100 9 0 0.0 4.8 0.00 0.00 0.00 78 1015.2